Time,TemperatureF,DewpointF,PressureIn,WindDirection,WindDirectionDegrees,WindSpeedMPH,WindSpeedGustMPH,Humidity,HourlyPrecipIn,Conditions,Clouds,dailyrainin,SoftwareType,DateUTC
2013-11-20 00:00:00,43.1,22.7,29.70,WSW,254,5.0,12.0,44,0.00,,---,0.00,VWS V15.00,2013-11-20 07:00:00,
2013-11-20 00:02:00,43.6,23.1,29.68,WSW,257,6.0,6.0,44,0.00,,---,0.00,VWS V13.01,2013-11-20 07:02:00,
2013-11-20 00:07:00,43.6,22.6,29.69,WSW,240,12.0,12.0,43,0.00,,---,0.00,VWS V13.01,2013-11-20 07:07:00,
2013-11-20 00:13:00,43.8,22.8,29.69,WSW,239,8.0,13.0,43,0.00,,---,0.00,VWS V13.01,2013-11-20 07:13:00,
2013-11-20 00:18:00,43.9,22.9,29.69,SW,221,5.0,13.0,43,0.00,,---,0.00,VWS V13.01,2013-11-20 07:18:00,
2013-11-20 00:23:00,43.9,22.9,29.70,West,266,0.0,13.0,43,0.00,,---,0.00,VWS V13.01,2013-11-20 07:23:00,
2013-11-20 00:28:00,43.9,22.9,29.69,West,270,1.0,13.0,43,0.00,,---,0.00,VWS V13.01,2013-11-20 07:28:00,
2013-11-20 00:30:00,41.4,21.7,29.71,SW,234,0.0,7.0,45,0.00,,---,0.00,VWS V15.00,2013-11-20 07:30:00,
2013-11-20 00:33:00,43.7,22.7,29.69,NE,55,1.0,3.0,43,0.00,,---,0.00,VWS V13.01,2013-11-20 07:33:00,
2013-11-20 00:38:00,43.5,22.5,29.70,West,273,5.0,6.0,43,0.00,,---,0.00,VWS V13.01,2013-11-20 07:38:00,
2013-11-20 00:43:00,43.4,22.4,29.69,WSW,243,8.0,8.0,43,0.00,,---,0.00,VWS V13.01,2013-11-20 07:43:00,
2013-11-20 00:48:00,43.3,22.3,29.69,WSW,244,7.0,10.0,43,0.00,,---,0.00,VWS V13.01,2013-11-20 07:48:00,
2013-11-20 00:53:00,43.2,22.2,29.70,WSW,237,6.0,12.0,43,0.00,,---,0.00,VWS V13.01,2013-11-20 07:53:00,
2013-11-20 00:58:00,43.1,22.7,29.70,WSW,253,4.0,12.0,44,0.00,,---,0.00,VWS V13.01,2013-11-20 07:58:00,
2013-11-20 01:00:00,40.6,20.9,29.70,SW,230,5.0,8.0,45,0.00,,---,0.00,VWS V15.00,2013-11-20 08:00:00,
2013-11-20 01:03:00,42.9,22.5,29.70,WNW,299,0.0,6.0,44,0.00,,---,0.00,VWS V13.01,2013-11-20 08:03:00,
2013-11-20 01:08:00,42.7,22.3,29.70,West,271,1.0,6.0,44,0.00,,---,0.00,VWS V13.01,2013-11-20 08:08:00,
2013-11-20 01:13:00,42.3,22.0,29.70,WSW,242,5.0,6.0,44,0.00,,---,0.00,VWS V13.01,2013-11-20 08:13:00,
2013-11-20 01:18:00,41.9,21.6,29.70,SW,228,5.0,7.0,44,0.00,,---,0.00,VWS V13.01,2013-11-20 08:18:00,
2013-11-20 01:23:00,41.6,21.9,29.70,SW,232,3.0,7.0,45,0.00,,---,0.00,VWS V13.01,2013-11-20 08:23:00,
2013-11-20 01:28:00,41.5,21.8,29.70,SW,234,0.0,7.0,45,0.00,,---,0.00,VWS V13.01,2013-11-20 08:28:00,
2013-11-20 01:30:00,41.4,20.6,29.70,West,261,3.0,11.0,43,0.00,,---,0.00,VWS V15.00,2013-11-20 08:30:00,
2013-11-20 01:33:00,41.3,21.6,29.70,SW,233,0.0,5.0,45,0.00,,---,0.00,VWS V13.01,2013-11-20 08:33:00,
2013-11-20 01:39:00,41.3,21.6,29.70,SW,232,0.0,5.0,45,0.00,,---,0.00,VWS V13.01,2013-11-20 08:39:00,
2013-11-20 01:44:00,41.4,21.7,29.70,SW,232,2.0,5.0,45,0.00,,---,0.00,VWS V13.01,2013-11-20 08:44:00,
2013-11-20 01:49:00,41.3,21.6,29.70,SW,231,2.0,5.0,45,0.00,,---,0.00,VWS V13.01,2013-11-20 08:49:00,
2013-11-20 01:54:00,41.0,21.3,29.70,SW,229,5.0,7.0,45,0.00,,---,0.00,VWS V13.01,2013-11-20 08:54:00,
2013-11-20 01:59:00,40.6,20.9,29.70,WSW,254,8.0,8.0,45,0.00,,---,0.00,VWS V13.01,2013-11-20 08:59:00,
2013-11-20 02:00:00,41.5,21.8,29.70,WNW,292,1.0,8.0,45,0.00,,---,0.00,VWS V15.00,2013-11-20 09:00:00,
2013-11-20 02:04:00,40.5,20.9,29.70,WSW,251,5.0,10.0,45,0.00,,---,0.00,VWS V13.01,2013-11-20 09:04:00,
2013-11-20 02:09:00,40.7,20.5,29.70,SW,227,6.0,10.0,44,0.00,,---,0.00,VWS V13.01,2013-11-20 09:09:00,
2013-11-20 02:14:00,41.2,21.0,29.70,SW,234,3.0,11.0,44,0.00,,---,0.00,VWS V13.01,2013-11-20 09:14:00,
2013-11-20 02:19:00,41.4,21.1,29.70,WSW,248,2.0,11.0,44,0.00,,---,0.00,VWS V13.01,2013-11-20 09:19:00,
2013-11-20 02:24:00,41.5,20.7,29.71,WSW,248,2.0,11.0,43,0.00,,---,0.00,VWS V13.01,2013-11-20 09:24:00,
2013-11-20 02:29:00,41.5,20.7,29.70,West,260,3.0,11.0,43,0.00,,---,0.00,VWS V13.01,2013-11-20 09:29:00,
2013-11-20 02:30:00,43.0,20.4,29.68,SW,217,13.0,16.0,40,0.00,,---,0.00,VWS V15.00,2013-11-20 09:30:00,
2013-11-20 02:34:00,41.3,20.5,29.70,West,280,2.0,4.0,43,0.00,,---,0.00,VWS V13.01,2013-11-20 09:34:00,
2013-11-20 02:39:00,41.3,21.0,29.70,WNW,287,2.0,5.0,44,0.00,,---,0.00,VWS V13.01,2013-11-20 09:39:00,
2013-11-20 02:44:00,41.2,21.0,29.70,WNW,294,2.0,8.0,44,0.00,,---,0.00,VWS V13.01,2013-11-20 09:44:00,
2013-11-20 02:49:00,41.3,21.6,29.71,WNW,295,2.0,8.0,45,0.00,,---,0.00,VWS V13.01,2013-11-20 09:49:00,
2013-11-20 02:54:00,41.5,21.8,29.69,WNW,284,1.0,8.0,45,0.00,,---,0.00,VWS V13.01,2013-11-20 09:54:00,
2013-11-20 02:59:00,41.5,21.8,29.70,West,273,1.0,1.0,45,0.00,,---,0.00,VWS V13.01,2013-11-20 09:59:00,
2013-11-20 03:00:00,43.9,20.0,29.68,West,264,4.0,17.0,38,0.00,,---,0.00,VWS V15.00,2013-11-20 10:00:00,
2013-11-20 03:05:00,41.5,21.2,29.70,West,281,6.0,6.0,44,0.00,,---,0.00,VWS V13.01,2013-11-20 10:05:00,
2013-11-20 03:10:00,41.3,21.6,29.69,SW,232,6.0,14.0,45,0.00,,---,0.00,VWS V13.01,2013-11-20 10:10:00,
2013-11-20 03:15:00,41.6,21.3,29.69,SW,223,11.0,14.0,44,0.00,,---,0.00,VWS V13.01,2013-11-20 10:15:00,
2013-11-20 03:20:00,42.2,20.2,29.68,SSW,213,11.0,16.0,41,0.00,,---,0.00,VWS V13.01,2013-11-20 10:20:00,
2013-11-20 03:25:00,42.8,20.8,29.68,SW,218,13.0,16.0,41,0.00,,---,0.00,VWS V13.01,2013-11-20 10:25:00,
2013-11-20 03:30:00,43.0,20.4,29.67,SW,227,9.0,13.0,40,0.00,,---,0.00,VWS V13.01,2013-11-20 10:30:00,
2013-11-20 03:35:00,43.5,20.2,29.68,SW,232,12.0,15.0,39,0.00,,---,0.00,VWS V13.01,2013-11-20 10:35:00,
2013-11-20 03:40:00,44.0,20.0,29.68,SW,235,14.0,17.0,38,0.00,,---,0.00,VWS V13.01,2013-11-20 10:40:00,
2013-11-20 03:45:00,44.4,19.8,29.67,WSW,244,8.0,17.0,37,0.00,,---,0.00,VWS V13.01,2013-11-20 10:45:00,
2013-11-20 03:50:00,44.5,19.9,29.67,WSW,239,6.0,17.0,37,0.00,,---,0.00,VWS V13.01,2013-11-20 10:50:00,
2013-11-20 03:55:00,44.2,20.2,29.67,WSW,249,5.0,17.0,38,0.00,,---,0.00,VWS V13.01,2013-11-20 10:55:00,
2013-11-20 04:00:00,43.8,20.5,29.67,West,274,4.0,6.0,39,0.00,,---,0.00,VWS V13.01,2013-11-20 11:00:00,
2013-11-20 04:05:00,43.3,20.6,29.67,WSW,243,7.0,9.0,40,0.00,,---,0.00,VWS V13.01,2013-11-20 11:05:00,
2013-11-20 04:10:00,42.6,20.6,29.67,West,260,5.0,9.0,41,0.00,,---,0.00,VWS V13.01,2013-11-20 11:10:00,
2013-11-20 04:15:00,42.2,20.8,29.67,West,267,5.0,9.0,42,0.00,,---,0.00,VWS V13.01,2013-11-20 11:15:00,
2013-11-20 04:20:00,41.9,21.0,29.68,West,260,3.0,9.0,43,0.00,,---,0.00,VWS V13.01,2013-11-20 11:20:00,
2013-11-20 04:25:00,41.7,20.9,29.68,WSW,250,3.0,9.0,43,0.00,,---,0.00,VWS V13.01,2013-11-20 11:25:00,
2013-11-20 04:30:00,41.5,21.8,29.69,WSW,243,9.0,9.0,45,0.00,,---,0.00,VWS V13.01,2013-11-20 11:30:00,
2013-11-20 04:36:00,41.7,21.9,29.68,WSW,240,5.0,12.0,45,0.00,,---,0.00,VWS V13.01,2013-11-20 11:36:00,
2013-11-20 04:41:00,41.9,22.1,29.68,WSW,241,8.0,12.0,45,0.00,,---,0.00,VWS V13.01,2013-11-20 11:41:00,
2013-11-20 04:46:00,42.0,21.7,29.67,SW,236,7.0,12.0,44,0.00,,---,0.00,VWS V13.01,2013-11-20 11:46:00,
2013-11-20 04:51:00,42.2,21.9,29.67,WSW,241,7.0,12.0,44,0.00,,---,0.00,VWS V13.01,2013-11-20 11:51:00,
2013-11-20 04:56:00,42.1,21.8,29.68,SW,225,6.0,12.0,44,0.00,,---,0.00,VWS V13.01,2013-11-20 11:56:00,
2013-11-20 05:00:00,40.7,21.5,29.68,SW,215,3.0,6.0,46,0.00,,---,0.00,VWS V15.00,2013-11-20 12:00:00,
2013-11-20 05:01:00,42.1,21.8,29.68,SW,226,9.0,9.0,44,0.00,,---,0.00,VWS V13.01,2013-11-20 12:01:00,
2013-11-20 05:06:00,42.2,21.3,29.68,SW,225,6.0,9.0,43,0.00,,---,0.00,VWS V13.01,2013-11-20 12:06:00,
2013-11-20 05:11:00,42.2,21.3,29.68,SW,224,6.0,9.0,43,0.00,,---,0.00,VWS V13.01,2013-11-20 12:11:00,
2013-11-20 05:16:00,42.1,21.2,29.68,SSW,195,3.0,9.0,43,0.00,,---,0.00,VWS V13.01,2013-11-20 12:16:00,
2013-11-20 05:21:00,41.9,21.6,29.68,SW,214,3.0,9.0,44,0.00,,---,0.00,VWS V13.01,2013-11-20 12:21:00,
2013-11-20 05:26:00,41.8,21.5,29.68,SW,221,3.0,9.0,44,0.00,,---,0.00,VWS V13.01,2013-11-20 12:26:00,
2013-11-20 05:30:00,39.8,20.2,29.68,SSE,163,0.0,6.0,45,0.00,,---,0.00,VWS V15.00,2013-11-20 12:30:00,
2013-11-20 05:31:00,41.7,21.4,29.68,South,186,0.0,4.0,44,0.00,,---,0.00,VWS V13.01,2013-11-20 12:31:00,
2013-11-20 05:36:00,41.4,21.1,29.68,South,185,2.0,4.0,44,0.00,,---,0.00,VWS V13.01,2013-11-20 12:36:00,
2013-11-20 05:41:00,41.2,21.5,29.69,South,190,3.0,4.0,45,0.00,,---,0.00,VWS V13.01,2013-11-20 12:41:00,
2013-11-20 05:46:00,41.0,21.3,29.68,WSW,241,4.0,5.0,45,0.00,,---,0.00,VWS V13.01,2013-11-20 12:46:00,
2013-11-20 05:51:00,40.9,21.2,29.68,SW,231,5.0,6.0,45,0.00,,---,0.00,VWS V13.01,2013-11-20 12:51:00,
2013-11-20 05:56:00,40.8,21.1,29.68,SW,221,3.0,6.0,45,0.00,,---,0.00,VWS V13.01,2013-11-20 12:56:00,
2013-11-20 06:00:00,37.7,18.8,29.68,SSW,196,1.0,5.0,46,0.00,,---,0.00,VWS V15.00,2013-11-20 13:00:00,
2013-11-20 06:02:00,40.7,21.0,29.67,SW,222,3.0,5.0,45,0.00,,---,0.00,VWS V13.01,2013-11-20 13:02:00,
2013-11-20 06:07:00,40.8,21.1,29.67,SW,224,3.0,6.0,45,0.00,,---,0.00,VWS V13.01,2013-11-20 13:07:00,
2013-11-20 06:12:00,40.8,21.1,29.68,SSW,194,0.0,6.0,45,0.00,,---,0.00,VWS V13.01,2013-11-20 13:12:00,
2013-11-20 06:17:00,40.6,20.9,29.68,SSW,194,0.0,6.0,45,0.00,,---,0.00,VWS V13.01,2013-11-20 13:17:00,
2013-11-20 06:22:00,40.4,20.8,29.67,SSW,194,0.0,6.0,45,0.00,,---,0.00,VWS V13.01,2013-11-20 13:22:00,
2013-11-20 06:27:00,40.0,20.4,29.67,SE,142,0.0,6.0,45,0.00,,---,0.00,VWS V13.01,2013-11-20 13:27:00,
2013-11-20 06:30:00,36.2,17.9,29.67,South,169,0.0,5.0,47,0.00,,---,0.00,VWS V15.00,2013-11-20 13:30:00,
2013-11-20 06:32:00,39.7,20.1,29.67,ESE,114,3.0,5.0,45,0.00,,---,0.00,VWS V13.01,2013-11-20 13:32:00,
2013-11-20 06:37:00,39.5,19.9,29.67,ESE,113,2.0,5.0,45,0.00,,---,0.00,VWS V13.01,2013-11-20 13:37:00,
2013-11-20 06:42:00,39.2,19.7,29.67,ESE,111,0.0,5.0,45,0.00,,---,0.00,VWS V13.01,2013-11-20 13:42:00,
2013-11-20 06:47:00,38.8,19.3,29.67,ESE,115,0.0,5.0,45,0.00,,---,0.00,VWS V13.01,2013-11-20 13:47:00,
2013-11-20 06:52:00,38.5,19.0,29.67,South,191,3.0,5.0,45,0.00,,---,0.00,VWS V13.01,2013-11-20 13:52:00,
2013-11-20 06:57:00,38.1,19.2,29.68,SSW,198,2.0,5.0,46,0.00,,---,0.00,VWS V13.01,2013-11-20 13:57:00,
2013-11-20 07:00:00,35.2,18.0,29.67,South,176,1.0,5.0,49,0.00,,---,0.00,VWS V15.00,2013-11-20 14:00:00,
2013-11-20 07:02:00,37.4,18.5,29.67,SSW,196,0.0,2.0,46,0.00,,---,0.00,VWS V13.01,2013-11-20 14:02:00,
2013-11-20 07:07:00,37.1,18.8,29.67,SSW,199,2.0,2.0,47,0.00,,---,0.00,VWS V13.01,2013-11-20 14:07:00,
2013-11-20 07:12:00,36.8,18.5,29.67,South,177,0.0,3.0,47,0.00,,---,0.00,VWS V13.01,2013-11-20 14:12:00,
2013-11-20 07:17:00,36.6,18.3,29.67,South,186,3.0,4.0,47,0.00,,---,0.00,VWS V13.01,2013-11-20 14:17:00,
2013-11-20 07:22:00,36.4,18.1,29.67,South,172,3.0,5.0,47,0.00,,---,0.00,VWS V13.01,2013-11-20 14:22:00,
2013-11-20 07:28:00,36.3,18.0,29.67,South,170,3.0,5.0,47,0.00,,---,0.00,VWS V13.01,2013-11-20 14:28:00,
2013-11-20 07:30:00,36.3,19.0,29.67,SW,219,3.0,5.0,49,0.00,,---,0.00,VWS V15.00,2013-11-20 14:30:00,
2013-11-20 07:33:00,36.0,17.7,29.67,South,176,2.0,2.0,47,0.00,,---,0.00,VWS V13.01,2013-11-20 14:33:00,
2013-11-20 07:38:00,36.0,17.7,29.67,South,177,0.0,2.0,47,0.00,,---,0.00,VWS V13.01,2013-11-20 14:38:00,
2013-11-20 07:43:00,36.0,17.7,29.67,South,189,2.0,4.0,47,0.00,,---,0.00,VWS V13.01,2013-11-20 14:43:00,
2013-11-20 07:48:00,35.8,18.0,29.67,South,189,0.0,4.0,48,0.00,,---,0.00,VWS V13.01,2013-11-20 14:48:00,
2013-11-20 07:53:00,35.4,17.7,29.67,South,187,0.0,4.0,48,0.00,,---,0.00,VWS V13.01,2013-11-20 14:53:00,
2013-11-20 07:58:00,35.2,17.5,29.67,South,177,1.0,5.0,48,0.00,,---,0.00,VWS V13.01,2013-11-20 14:58:00,
2013-11-20 08:00:00,37.6,19.7,29.67,South,187,0.0,5.0,48,0.00,,---,0.00,VWS V15.00,2013-11-20 15:00:00,
2013-11-20 08:03:00,35.3,17.6,29.66,South,184,3.0,3.0,48,0.00,,---,0.00,VWS V13.01,2013-11-20 15:03:00,
2013-11-20 08:08:00,35.5,18.2,29.67,South,180,2.0,5.0,49,0.00,,---,0.00,VWS V13.01,2013-11-20 15:08:00,
2013-11-20 08:13:00,35.6,18.3,29.67,South,184,0.0,5.0,49,0.00,,---,0.00,VWS V13.01,2013-11-20 15:13:00,
2013-11-20 08:18:00,35.8,18.5,29.67,South,175,1.0,5.0,49,0.00,,---,0.00,VWS V13.01,2013-11-20 15:18:00,
2013-11-20 08:23:00,36.2,18.9,29.67,SSE,156,4.0,5.0,49,0.00,,---,0.00,VWS V13.01,2013-11-20 15:23:00,
2013-11-20 08:28:00,36.3,19.0,29.67,SW,222,1.0,5.0,49,0.00,,---,0.00,VWS V13.01,2013-11-20 15:28:00,
2013-11-20 08:30:00,39.2,20.7,29.67,SSW,206,2.0,4.0,47,0.00,,---,0.00,VWS V15.00,2013-11-20 15:30:00,
2013-11-20 08:33:00,36.4,18.6,29.67,SSW,195,1.0,3.0,48,0.00,,---,0.00,VWS V13.01,2013-11-20 15:33:00,
2013-11-20 08:38:00,36.7,18.9,29.67,SSW,193,2.0,3.0,48,0.00,,---,0.00,VWS V13.01,2013-11-20 15:38:00,
2013-11-20 08:43:00,36.9,19.1,29.67,SW,223,0.0,4.0,48,0.00,,---,0.00,VWS V13.01,2013-11-20 15:43:00,
2013-11-20 08:48:00,37.0,19.6,29.66,SW,221,1.0,4.0,49,0.00,,---,0.00,VWS V13.01,2013-11-20 15:48:00,
2013-11-20 08:54:00,37.3,19.4,29.66,South,189,1.0,5.0,48,0.00,,---,0.00,VWS V13.01,2013-11-20 15:54:00,
2013-11-20 08:59:00,37.5,19.6,29.67,South,187,0.0,5.0,48,0.00,,---,0.00,VWS V13.01,2013-11-20 15:59:00,
2013-11-20 09:00:00,41.2,19.9,29.68,North,358,6.0,11.0,42,0.00,,---,0.00,VWS V15.00,2013-11-20 16:00:00,
2013-11-20 09:04:00,37.7,20.3,29.67,SW,214,0.0,4.0,49,0.00,,---,0.00,VWS V13.01,2013-11-20 16:04:00,
2013-11-20 09:09:00,37.9,20.0,29.68,SSW,210,0.0,4.0,48,0.00,,---,0.00,VWS V13.01,2013-11-20 16:09:00,
2013-11-20 09:14:00,38.2,20.2,29.68,SSW,208,1.0,4.0,48,0.00,,---,0.00,VWS V13.01,2013-11-20 16:14:00,
2013-11-20 09:19:00,38.5,20.5,29.67,SSW,211,0.0,4.0,48,0.00,,---,0.00,VWS V13.01,2013-11-20 16:19:00,
2013-11-20 09:24:00,38.8,20.8,29.67,SSW,209,0.0,4.0,48,0.00,,---,0.00,VWS V13.01,2013-11-20 16:24:00,
2013-11-20 09:29:00,39.2,20.7,29.67,SSW,207,1.0,4.0,47,0.00,,---,0.00,VWS V13.01,2013-11-20 16:29:00,
2013-11-20 09:30:00,31.3,14.8,29.68,North,349,6.0,15.0,50,0.00,,---,0.00,VWS V15.00,2013-11-20 16:30:00,
2013-11-20 09:34:00,39.5,20.5,29.67,SSW,205,2.0,2.0,46,0.00,,---,0.00,VWS V13.01,2013-11-20 16:34:00,
2013-11-20 09:39:00,40.1,20.5,29.67,SSW,204,0.0,2.0,45,0.00,,---,0.00,VWS V13.01,2013-11-20 16:39:00,
2013-11-20 09:44:00,40.5,21.4,29.67,SSW,203,1.0,2.0,46,0.00,,---,0.00,VWS V13.01,2013-11-20 16:44:00,
2013-11-20 09:49:00,41.0,21.8,29.67,SSW,202,0.0,2.0,46,0.00,,---,0.00,VWS V13.01,2013-11-20 16:49:00,
2013-11-20 09:54:00,41.4,21.7,29.67,SSW,203,0.0,2.0,45,0.00,,---,0.00,VWS V13.01,2013-11-20 16:54:00,
2013-11-20 09:59:00,41.3,20.0,29.68,North,355,7.0,11.0,42,0.00,,---,0.00,VWS V13.01,2013-11-20 16:59:00,
2013-11-20 10:00:00,26.5,12.5,29.69,North,3,12.0,19.0,55,0.00,,---,0.00,VWS V15.00,2013-11-20 17:00:00,
2013-11-20 10:05:00,38.7,18.1,29.67,North,2,9.0,10.0,43,0.00,,---,0.00,VWS V13.01,2013-11-20 17:05:00,
2013-11-20 10:10:00,35.8,16.5,29.68,North,5,7.0,15.0,45,0.00,,---,0.00,VWS V13.01,2013-11-20 17:10:00,
2013-11-20 10:15:00,33.7,16.1,29.68,NNE,20,10.0,15.0,48,0.00,,---,0.00,VWS V13.01,2013-11-20 17:15:00,
2013-11-20 10:20:00,32.7,15.7,29.68,North,355,3.0,15.0,49,0.00,,---,0.00,VWS V13.01,2013-11-20 17:20:00,
2013-11-20 10:25:00,32.1,15.6,29.69,North,357,8.0,15.0,50,0.00,,---,0.00,VWS V13.01,2013-11-20 17:25:00,
2013-11-20 10:30:00,31.3,14.8,29.69,North,0,6.0,6.0,50,0.00,,---,0.00,VWS V13.01,2013-11-20 17:30:00,
2013-11-20 10:35:00,30.2,14.7,29.69,North,0,8.0,13.0,52,0.00,,---,0.00,VWS V13.01,2013-11-20 17:35:00,
2013-11-20 10:40:00,29.2,14.6,29.69,North,7,6.0,13.0,54,0.00,,---,0.00,VWS V13.01,2013-11-20 17:40:00,
2013-11-20 10:45:00,28.3,13.8,29.70,NNE,14,8.0,15.0,54,0.00,,---,0.00,VWS V13.01,2013-11-20 17:45:00,
2013-11-20 10:50:00,27.5,13.5,29.69,North,7,12.0,15.0,55,0.00,,---,0.00,VWS V13.01,2013-11-20 17:50:00,
2013-11-20 10:55:00,26.8,13.2,29.70,North,9,11.0,18.0,56,0.00,,---,0.00,VWS V13.01,2013-11-20 17:55:00,
2013-11-20 11:00:00,26.5,12.5,29.70,NNE,19,11.0,13.0,55,0.00,,---,0.00,VWS V13.01,2013-11-20 18:00:00,
2013-11-20 11:05:00,26.2,12.2,29.70,North,352,18.0,19.0,55,0.00,,---,0.00,VWS V13.01,2013-11-20 18:05:00,
2013-11-20 11:10:00,25.5,11.2,29.70,North,358,11.0,24.0,54,0.00,,---,0.00,VWS V13.01,2013-11-20 18:10:00,
2013-11-20 11:15:00,24.8,9.2,29.70,North,3,18.0,24.0,51,0.00,,---,0.00,VWS V13.01,2013-11-20 18:15:00,
2013-11-20 11:20:00,24.3,7.9,29.71,NNW,346,14.0,24.0,49,0.00,,---,0.00,VWS V13.01,2013-11-20 18:20:00,
2013-11-20 11:25:00,24.0,8.1,29.71,North,1,13.0,24.0,50,0.00,,---,0.00,VWS V13.01,2013-11-20 18:25:00,
2013-11-20 11:30:00,17.4,5.2,29.75,NNW,333,26.0,35.0,58,0.00,,---,0.00,VWS V15.00,2013-11-20 18:30:00,
2013-11-20 11:31:00,23.3,7.9,29.70,North,352,19.0,20.0,51,0.00,,---,0.00,VWS V13.01,2013-11-20 18:31:00,
2013-11-20 11:36:00,22.8,9.9,29.71,NNE,19,18.0,25.0,57,0.00,,---,0.00,VWS V13.01,2013-11-20 18:36:00,
2013-11-20 11:41:00,22.4,9.1,29.71,North,9,15.0,29.0,56,0.00,,---,0.00,VWS V13.01,2013-11-20 18:41:00,
2013-11-20 11:46:00,21.9,7.4,29.72,North,8,16.0,30.0,53,0.00,,---,0.00,VWS V13.01,2013-11-20 18:46:00,
2013-11-20 11:51:00,21.3,9.2,29.71,North,353,14.0,30.0,59,0.00,,---,0.00,VWS V13.01,2013-11-20 18:51:00,
2013-11-20 11:56:00,20.8,6.0,29.73,NNW,330,21.0,33.0,52,0.00,,---,0.00,VWS V13.01,2013-11-20 18:56:00,
2013-11-20 12:00:00,16.0,4.2,29.77,NNW,346,18.0,32.0,59,0.00,,---,0.00,VWS V15.00,2013-11-20 19:00:00,
2013-11-20 12:01:00,20.2,5.8,29.73,North,9,17.0,29.0,53,0.00,,---,0.00,VWS V13.01,2013-11-20 19:01:00,
2013-11-20 12:06:00,19.5,6.4,29.72,North,358,25.0,31.0,56,0.00,,---,0.00,VWS V13.01,2013-11-20 19:06:00,
2013-11-20 12:11:00,19.2,6.1,29.73,NNE,16,15.0,33.0,56,0.00,,---,0.00,VWS V13.01,2013-11-20 19:11:00,
2013-11-20 12:16:00,18.6,4.3,29.74,North,354,27.0,34.0,53,0.00,,---,0.00,VWS V13.01,2013-11-20 19:16:00,
2013-11-20 12:21:00,18.4,5.3,29.75,NNE,17,22.0,34.0,56,0.00,,---,0.00,VWS V13.01,2013-11-20 19:21:00,
2013-11-20 12:26:00,17.9,5.2,29.75,North,7,27.0,34.0,57,0.00,,---,0.00,VWS V13.01,2013-11-20 19:26:00,
2013-11-20 12:30:00,15.9,3.0,29.80,North,2,24.0,34.0,56,0.00,,---,0.00,VWS V15.00,2013-11-20 19:30:00,
2013-11-20 12:31:00,17.3,5.8,29.75,North,353,22.0,26.0,60,0.00,,---,0.00,VWS V13.01,2013-11-20 19:31:00,
2013-11-20 12:37:00,16.8,5.7,29.74,NNW,328,32.0,32.0,61,0.00,,---,0.00,VWS V13.01,2013-11-20 19:37:00,
2013-11-20 12:42:00,16.6,5.9,29.75,North,356,27.0,32.0,62,0.00,,---,0.00,VWS V13.01,2013-11-20 19:42:00,
2013-11-20 12:47:00,16.5,6.1,29.77,NNW,333,16.0,32.0,63,0.00,,---,0.00,VWS V13.01,2013-11-20 19:47:00,
2013-11-20 12:52:00,16.2,5.5,29.77,North,353,28.0,32.0,62,0.00,,---,0.00,VWS V13.01,2013-11-20 19:52:00,
2013-11-20 12:57:00,16.0,4.9,29.77,NNW,341,22.0,32.0,61,0.00,,---,0.00,VWS V13.01,2013-11-20 19:57:00,
2013-11-20 13:00:00,15.2,3.5,29.82,NNW,343,22.0,35.0,59,0.00,,---,0.00,VWS V15.00,2013-11-20 20:00:00,
2013-11-20 13:02:00,16.1,3.9,29.78,North,349,23.0,31.0,58,0.00,,---,0.00,VWS V13.01,2013-11-20 20:02:00,
2013-11-20 13:07:00,16.2,3.3,29.78,NNE,13,22.0,31.0,56,0.00,,---,0.00,VWS V13.01,2013-11-20 20:07:00,
2013-11-20 13:12:00,16.3,3.8,29.78,NNW,328,13.0,31.0,57,0.00,,---,0.00,VWS V13.01,2013-11-20 20:12:00,
2013-11-20 13:17:00,16.4,4.2,29.79,NNE,17,21.0,32.0,58,0.00,,---,0.00,VWS V13.01,2013-11-20 20:17:00,
2013-11-20 13:22:00,16.3,3.8,29.79,North,4,26.0,32.0,57,0.00,,---,0.00,VWS V13.01,2013-11-20 20:22:00,
2013-11-20 13:27:00,16.0,3.1,29.79,North,350,24.0,34.0,56,0.00,,---,0.00,VWS V13.01,2013-11-20 20:27:00,
2013-11-20 13:30:00,14.0,1.2,29.84,North,356,19.0,30.0,56,0.00,,---,0.00,VWS V15.00,2013-11-20 20:30:00,
2013-11-20 13:32:00,15.7,2.8,29.80,North,1,21.0,30.0,56,0.00,,---,0.00,VWS V13.01,2013-11-20 20:32:00,
2013-11-20 13:37:00,15.7,3.2,29.80,NNW,334,25.0,30.0,57,0.00,,---,0.00,VWS V13.01,2013-11-20 20:37:00,
2013-11-20 13:42:00,15.6,2.7,29.80,North,356,24.0,30.0,56,0.00,,---,0.00,VWS V13.01,2013-11-20 20:42:00,
2013-11-20 13:48:00,15.4,2.9,29.80,NW,321,26.0,32.0,57,0.00,,---,0.00,VWS V13.01,2013-11-20 20:48:00,
2013-11-20 13:53:00,15.2,3.1,29.81,NNW,348,14.0,35.0,58,0.00,,---,0.00,VWS V13.01,2013-11-20 20:53:00,
2013-11-20 13:58:00,15.3,3.5,29.82,North,355,14.0,35.0,59,0.00,,---,0.00,VWS V13.01,2013-11-20 20:58:00,
2013-11-20 14:00:00,13.1,2.2,29.85,NNW,332,20.0,28.0,61,0.00,,---,0.00,VWS V15.00,2013-11-20 21:00:00,
2013-11-20 14:03:00,15.1,1.9,29.82,NNW,347,21.0,26.0,55,0.00,,---,0.00,VWS V13.01,2013-11-20 21:03:00,
2013-11-20 14:08:00,14.9,0.9,29.83,NNW,335,18.0,30.0,53,0.00,,---,0.00,VWS V13.01,2013-11-20 21:08:00,
2013-11-20 14:13:00,14.7,1.1,29.83,North,356,14.0,30.0,54,0.00,,---,0.00,VWS V13.01,2013-11-20 21:13:00,
2013-11-20 14:18:00,14.6,0.2,29.83,North,9,19.0,30.0,52,0.00,,---,0.00,VWS V13.01,2013-11-20 21:18:00,
2013-11-20 14:23:00,14.3,0.3,29.83,NNW,343,17.0,30.0,53,0.00,,---,0.00,VWS V13.01,2013-11-20 21:23:00,
2013-11-20 14:28:00,14.0,0.8,29.83,NNE,16,17.0,30.0,55,0.00,,---,0.00,VWS V13.01,2013-11-20 21:28:00,
2013-11-20 14:30:00,12.3,0.0,29.88,NNE,16,10.0,25.0,57,0.00,,---,0.00,VWS V15.00,2013-11-20 21:30:00,
2013-11-20 14:33:00,13.8,1.4,29.84,North,355,21.0,22.0,57,0.00,,---,0.00,VWS V13.01,2013-11-20 21:33:00,
2013-11-20 14:38:00,13.6,1.6,29.85,NNW,330,14.0,25.0,58,0.00,,---,0.00,VWS V13.01,2013-11-20 21:38:00,
2013-11-20 14:43:00,13.4,1.4,29.85,NNE,19,22.0,25.0,58,0.00,,---,0.00,VWS V13.01,2013-11-20 21:43:00,
2013-11-20 14:48:00,13.3,1.7,29.85,NNE,12,17.0,25.0,59,0.00,,---,0.00,VWS V13.01,2013-11-20 21:48:00,
2013-11-20 14:53:00,13.2,1.9,29.86,North,359,13.0,25.0,60,0.00,,---,0.00,VWS V13.01,2013-11-20 21:53:00,
2013-11-20 14:58:00,13.1,1.8,29.86,North,357,13.0,28.0,60,0.00,,---,0.00,VWS V13.01,2013-11-20 21:58:00,
2013-11-20 15:00:00,10.9,-1.0,29.91,NNW,348,15.0,28.0,58,0.00,,---,0.00,VWS V15.00,2013-11-20 22:00:00,
2013-11-20 15:04:00,13.0,2.1,29.86,NNE,23,20.0,22.0,61,0.00,,---,0.00,VWS V13.01,2013-11-20 22:04:00,
2013-11-20 15:09:00,13.0,2.1,29.86,NNW,344,14.0,23.0,61,0.00,,---,0.00,VWS V13.01,2013-11-20 22:09:00,
2013-11-20 15:14:00,12.8,1.5,29.87,North,355,11.0,25.0,60,0.00,,---,0.00,VWS V13.01,2013-11-20 22:14:00,
2013-11-20 15:19:00,12.6,1.0,29.87,North,9,19.0,25.0,59,0.00,,---,0.00,VWS V13.01,2013-11-20 22:19:00,
2013-11-20 15:24:00,12.5,0.5,29.88,North,356,13.0,25.0,58,0.00,,---,0.00,VWS V13.01,2013-11-20 22:24:00,
2013-11-20 15:29:00,12.3,0.0,29.88,North,359,8.0,25.0,57,0.00,,---,0.00,VWS V13.01,2013-11-20 22:29:00,
2013-11-20 15:30:00,9.8,-2.0,29.93,North,353,13.0,22.0,58,0.00,,---,0.00,VWS V15.00,2013-11-20 22:30:00,
2013-11-20 15:34:00,11.9,0.0,29.88,NNW,347,8.0,28.0,58,0.00,,---,0.00,VWS V13.01,2013-11-20 22:34:00,
2013-11-20 15:39:00,11.7,0.2,29.89,NW,326,16.0,28.0,59,0.00,,---,0.00,VWS V13.01,2013-11-20 22:39:00,
2013-11-20 15:44:00,11.5,-0.4,29.89,NNW,345,16.0,28.0,58,0.00,,---,0.00,VWS V13.01,2013-11-20 22:44:00,
2013-11-20 15:49:00,11.4,-0.1,29.90,North,359,17.0,28.0,59,0.00,,---,0.00,VWS V13.01,2013-11-20 22:49:00,
2013-11-20 15:54:00,11.1,-0.8,29.91,NNW,327,15.0,28.0,58,0.00,,---,0.00,VWS V13.01,2013-11-20 22:54:00,
2013-11-20 15:59:00,10.9,-1.0,29.91,North,11,10.0,15.0,58,0.00,,---,0.00,VWS V13.01,2013-11-20 22:59:00,
2013-11-20 16:00:00,9.0,-1.4,29.95,NNE,28,4.0,19.0,62,0.00,,---,0.00,VWS V15.00,2013-11-20 23:00:00,
2013-11-20 16:04:00,10.6,-1.2,29.91,NNW,338,13.0,22.0,58,0.00,,---,0.00,VWS V13.01,2013-11-20 23:04:00,
2013-11-20 16:09:00,10.5,-1.7,29.93,NNW,346,9.0,22.0,57,0.00,,---,0.00,VWS V13.01,2013-11-20 23:09:00,
2013-11-20 16:15:00,10.3,-2.7,29.92,NW,310,9.0,22.0,55,0.00,,---,0.00,VWS V13.01,2013-11-20 23:15:00,
2013-11-20 16:20:00,10.1,-2.8,29.92,North,357,12.0,22.0,55,0.00,,---,0.00,VWS V13.01,2013-11-20 23:20:00,
2013-11-20 16:25:00,9.8,-2.7,29.94,North,1,10.0,22.0,56,0.00,,---,0.00,VWS V13.01,2013-11-20 23:25:00,
2013-11-20 16:30:00,9.7,-1.7,29.93,NNW,347,17.0,17.0,59,0.00,,---,0.00,VWS V13.01,2013-11-20 23:30:00,
2013-11-20 16:35:00,9.6,-1.8,29.94,North,349,10.0,17.0,59,0.00,,---,0.00,VWS V13.01,2013-11-20 23:35:00,
2013-11-20 16:40:00,9.6,-1.5,29.94,NNW,344,9.0,17.0,60,0.00,,---,0.00,VWS V13.01,2013-11-20 23:40:00,
2013-11-20 16:45:00,9.4,-1.3,29.94,NNW,347,13.0,19.0,61,0.00,,---,0.00,VWS V13.01,2013-11-20 23:45:00,
2013-11-20 16:50:00,9.2,-1.5,29.95,NNW,345,8.0,19.0,61,0.00,,---,0.00,VWS V13.01,2013-11-20 23:50:00,
2013-11-20 16:55:00,9.1,-1.3,29.95,North,352,9.0,19.0,62,0.00,,---,0.00,VWS V13.01,2013-11-20 23:55:00,
2013-11-20 17:00:00,8.2,-0.8,30.00,NNW,345,7.0,14.0,66,0.00,,---,0.00,VWS V15.00,2013-11-21 00:00:00,
2013-11-20 17:01:00,9.1,-0.9,29.96,North,349,10.0,15.0,63,0.00,,---,0.00,VWS V13.01,2013-11-21 00:01:00,
2013-11-20 17:06:00,8.9,-0.8,29.95,North,2,12.0,15.0,64,0.00,,---,0.00,VWS V13.01,2013-11-21 00:06:00,
2013-11-20 17:11:00,8.9,-0.4,29.97,NNW,338,8.0,15.0,65,0.00,,---,0.00,VWS V13.01,2013-11-21 00:11:00,
2013-11-20 17:16:00,8.8,-0.6,29.96,NNW,342,7.0,15.0,65,0.00,,---,0.00,VWS V13.01,2013-11-21 00:16:00,
2013-11-20 17:21:00,8.7,-0.6,29.97,NNW,335,9.0,15.0,65,0.00,,---,0.00,VWS V13.01,2013-11-21 00:21:00,
2013-11-20 17:26:00,8.5,-0.8,29.97,NNW,346,9.0,16.0,65,0.00,,---,0.00,VWS V13.01,2013-11-21 00:26:00,
2013-11-20 17:30:00,7.8,-0.9,30.02,NNW,334,5.0,16.0,67,0.00,,---,0.00,VWS V15.00,2013-11-21 00:30:00,
2013-11-20 17:31:00,8.5,-0.8,29.98,North,351,4.0,9.0,65,0.00,,---,0.00,VWS V13.01,2013-11-21 00:31:00,
2013-11-20 17:36:00,8.4,-0.6,29.99,North,350,9.0,14.0,66,0.00,,---,0.00,VWS V13.01,2013-11-21 00:36:00,
2013-11-20 17:41:00,8.3,-1.0,29.99,North,9,4.0,14.0,65,0.00,,---,0.00,VWS V13.01,2013-11-21 00:41:00,
2013-11-20 17:46:00,8.3,-1.0,30.00,North,3,4.0,14.0,65,0.00,,---,0.00,VWS V13.01,2013-11-21 00:46:00,
2013-11-20 17:51:00,8.3,-1.0,30.00,NNW,348,8.0,14.0,65,0.00,,---,0.00,VWS V13.01,2013-11-21 00:51:00,
2013-11-20 17:56:00,8.2,-1.1,30.00,NNW,340,7.0,14.0,65,0.00,,---,0.00,VWS V13.01,2013-11-21 00:56:00,
2013-11-20 18:00:00,8.2,-0.5,30.03,North,0,4.0,9.0,67,0.00,,---,0.00,VWS V15.00,2013-11-21 01:00:00,
2013-11-20 18:02:00,8.2,-0.8,30.00,North,349,7.0,7.0,66,0.00,,---,0.00,VWS V13.01,2013-11-21 01:02:00,
2013-11-20 18:07:00,8.1,-0.9,30.00,NNW,342,10.0,13.0,66,0.00,,---,0.00,VWS V13.01,2013-11-21 01:07:00,
2013-11-20 18:12:00,8.0,-1.0,30.01,NNW,344,6.0,13.0,66,0.00,,---,0.00,VWS V13.01,2013-11-21 01:12:00,
2013-11-20 18:17:00,8.0,-0.7,30.02,North,350,4.0,13.0,67,0.00,,---,0.00,VWS V13.01,2013-11-21 01:17:00,
2013-11-20 18:22:00,7.9,-0.8,30.02,North,6,2.0,16.0,67,0.00,,---,0.00,VWS V13.01,2013-11-21 01:22:00,
2013-11-20 18:27:00,7.9,-0.8,30.02,North,356,3.0,16.0,67,0.00,,---,0.00,VWS V13.01,2013-11-21 01:27:00,
2013-11-20 18:30:00,8.0,-0.7,30.05,North,359,2.0,10.0,67,0.00,,---,0.00,VWS V15.00,2013-11-21 01:30:00,
2013-11-20 18:32:00,7.9,-0.8,30.02,North,1,3.0,8.0,67,0.00,,---,0.00,VWS V13.01,2013-11-21 01:32:00,
2013-11-20 18:37:00,7.9,-0.4,30.03,North,353,5.0,8.0,68,0.00,,---,0.00,VWS V13.01,2013-11-21 01:37:00,
2013-11-20 18:42:00,8.0,-0.4,30.03,NNW,335,7.0,9.0,68,0.00,,---,0.00,VWS V13.01,2013-11-21 01:42:00,
2013-11-20 18:47:00,8.0,-0.4,30.04,North,4,3.0,9.0,68,0.00,,---,0.00,VWS V13.01,2013-11-21 01:47:00,
2013-11-20 18:52:00,8.2,-0.2,30.04,NNW,340,3.0,9.0,68,0.00,,---,0.00,VWS V13.01,2013-11-21 01:52:00,
2013-11-20 18:57:00,8.1,-0.3,30.03,NNW,336,4.0,9.0,68,0.00,,---,0.00,VWS V13.01,2013-11-21 01:57:00,
2013-11-20 19:00:00,7.7,-0.6,30.07,North,2,5.0,11.0,68,0.00,,---,0.00,VWS V15.00,2013-11-21 02:00:00,
2013-11-20 19:03:00,8.2,-0.5,30.05,North,354,0.0,6.0,67,0.00,,---,0.00,VWS V13.01,2013-11-21 02:03:00,
2013-11-20 19:08:00,8.1,-0.6,30.04,North,3,5.0,6.0,67,0.00,,---,0.00,VWS V13.01,2013-11-21 02:08:00,
2013-11-20 19:13:00,8.1,-0.6,30.05,North,357,6.0,7.0,67,0.00,,---,0.00,VWS V13.01,2013-11-21 02:13:00,
2013-11-20 19:18:00,8.2,-0.5,30.05,North,1,5.0,10.0,67,0.00,,---,0.00,VWS V13.01,2013-11-21 02:18:00,
2013-11-20 19:23:00,8.1,-0.6,30.06,North,359,2.0,10.0,67,0.00,,---,0.00,VWS V13.01,2013-11-21 02:23:00,
2013-11-20 19:28:00,8.0,-0.7,30.05,North,0,5.0,10.0,67,0.00,,---,0.00,VWS V13.01,2013-11-21 02:28:00,
2013-11-20 19:30:00,7.6,-1.0,30.07,North,356,6.0,14.0,67,0.00,,---,0.00,VWS V15.00,2013-11-21 02:30:00,
2013-11-20 19:33:00,7.9,-0.8,30.05,North,0,2.0,6.0,67,0.00,,---,0.00,VWS V13.01,2013-11-21 02:33:00,
2013-11-20 19:38:00,7.8,-0.6,30.06,North,357,2.0,6.0,68,0.00,,---,0.00,VWS V13.01,2013-11-21 02:38:00,
2013-11-20 19:43:00,7.8,-0.9,30.06,North,0,3.0,6.0,67,0.00,,---,0.00,VWS V13.01,2013-11-21 02:43:00,
2013-11-20 19:48:00,7.8,-0.6,30.06,North,0,5.0,7.0,68,0.00,,---,0.00,VWS V13.01,2013-11-21 02:48:00,
2013-11-20 19:53:00,7.8,-0.6,30.06,North,7,7.0,11.0,68,0.00,,---,0.00,VWS V13.01,2013-11-21 02:53:00,
2013-11-20 19:58:00,7.7,-0.6,30.07,North,359,4.0,11.0,68,0.00,,---,0.00,VWS V13.01,2013-11-21 02:58:00,
2013-11-20 20:00:00,7.4,-1.2,30.08,North,2,9.0,13.0,67,0.00,,---,0.00,VWS V15.00,2013-11-21 03:00:00,
2013-11-20 20:03:00,7.7,-0.6,30.07,North,359,3.0,7.0,68,0.00,,---,0.00,VWS V13.01,2013-11-21 03:03:00,
2013-11-20 20:08:00,7.7,-0.6,30.07,North,356,2.0,11.0,68,0.00,,---,0.00,VWS V13.01,2013-11-21 03:08:00,
2013-11-20 20:14:00,7.6,-0.7,30.06,North,359,6.0,11.0,68,0.00,,---,0.00,VWS V13.01,2013-11-21 03:14:00,
2013-11-20 20:19:00,7.6,-0.7,30.08,North,352,7.0,11.0,68,0.00,,---,0.00,VWS V13.01,2013-11-21 03:19:00,
2013-11-20 20:24:00,7.6,-0.7,30.08,North,357,5.0,11.0,68,0.00,,---,0.00,VWS V13.01,2013-11-21 03:24:00,
2013-11-20 20:29:00,7.6,-1.0,30.07,North,352,10.0,14.0,67,0.00,,---,0.00,VWS V13.01,2013-11-21 03:29:00,
2013-11-20 20:30:00,7.2,-1.8,30.09,North,10,5.0,11.0,66,0.00,,---,0.00,VWS V15.00,2013-11-21 03:30:00,
2013-11-20 20:34:00,7.6,-1.0,30.08,North,359,6.0,13.0,67,0.00,,---,0.00,VWS V13.01,2013-11-21 03:34:00,
2013-11-20 20:39:00,7.5,-1.1,30.08,North,354,11.0,13.0,67,0.00,,---,0.00,VWS V13.01,2013-11-21 03:39:00,
2013-11-20 20:44:00,7.4,-1.2,30.09,NNW,347,12.0,13.0,67,0.00,,---,0.00,VWS V13.01,2013-11-21 03:44:00,
2013-11-20 20:49:00,7.4,-1.2,30.08,North,0,5.0,13.0,67,0.00,,---,0.00,VWS V13.01,2013-11-21 03:49:00,
2013-11-20 20:54:00,7.4,-1.2,30.08,North,8,6.0,13.0,67,0.00,,---,0.00,VWS V13.01,2013-11-21 03:54:00,
2013-11-20 20:59:00,7.4,-1.2,30.08,North,2,9.0,13.0,67,0.00,,---,0.00,VWS V13.01,2013-11-21 03:59:00,
2013-11-20 21:00:00,7.3,-2.0,30.11,North,0,0.0,10.0,65,0.00,,---,0.00,VWS V15.00,2013-11-21 04:00:00,
2013-11-20 21:04:00,7.4,-1.2,30.09,NNE,12,7.0,10.0,67,0.00,,---,0.00,VWS V13.01,2013-11-21 04:04:00,
2013-11-20 21:09:00,7.4,-1.2,30.09,North,0,4.0,10.0,67,0.00,,---,0.00,VWS V13.01,2013-11-21 04:09:00,
2013-11-20 21:15:00,7.3,-1.3,30.09,NNE,15,4.0,11.0,67,0.00,,---,0.00,VWS V13.01,2013-11-21 04:15:00,
2013-11-20 21:20:00,7.3,-1.7,30.09,North,358,6.0,11.0,66,0.00,,---,0.00,VWS V13.01,2013-11-21 04:20:00,
2013-11-20 21:25:00,7.3,-1.7,30.09,North,4,7.0,11.0,66,0.00,,---,0.00,VWS V13.01,2013-11-21 04:25:00,
2013-11-20 21:30:00,7.2,-1.8,30.10,North,2,5.0,7.0,66,0.00,,---,0.00,VWS V13.01,2013-11-21 04:30:00,
2013-11-20 21:35:00,7.2,-1.8,30.10,North,355,5.0,10.0,66,0.00,,---,0.00,VWS V13.01,2013-11-21 04:35:00,
2013-11-20 21:40:00,7.1,-2.2,30.10,North,5,4.0,10.0,65,0.00,,---,0.00,VWS V13.01,2013-11-21 04:40:00,
2013-11-20 21:45:00,7.2,-2.1,30.10,North,0,1.0,10.0,65,0.00,,---,0.00,VWS V13.01,2013-11-21 04:45:00,
2013-11-20 21:50:00,7.2,-1.8,30.10,North,0,1.0,10.0,66,0.00,,---,0.00,VWS V13.01,2013-11-21 04:50:00,
2013-11-20 21:55:00,7.3,-2.0,30.11,North,1,6.0,10.0,65,0.00,,---,0.00,VWS V13.01,2013-11-21 04:55:00,
2013-11-20 22:00:00,7.4,-1.9,30.11,North,0,0.0,0.0,65,0.00,,---,0.00,VWS V13.01,2013-11-21 05:00:00,
2013-11-20 22:01:00,7.4,-1.9,30.11,North,0,0.0,0.0,65,0.00,,---,0.00,VWS V13.01,2013-11-21 05:01:00,
2013-11-20 22:02:00,7.4,-1.9,30.12,North,0,0.0,0.0,65,0.00,,---,0.00,VWS V13.01,2013-11-21 05:02:00,
2013-11-20 22:07:00,7.5,-1.8,30.11,North,0,0.0,2.0,65,0.00,,---,0.00,VWS V13.01,2013-11-21 05:07:00,
2013-11-20 22:12:00,7.5,-1.8,30.12,North,0,0.0,2.0,65,0.00,,---,0.00,VWS V13.01,2013-11-21 05:12:00,
2013-11-20 22:17:00,7.6,-1.7,30.11,North,0,0.0,2.0,65,0.00,,---,0.00,VWS V13.01,2013-11-21 05:17:00,
2013-11-20 22:22:00,7.6,-1.7,30.11,North,0,0.0,2.0,65,0.00,,---,0.00,VWS V13.01,2013-11-21 05:22:00,
2013-11-20 22:27:00,7.7,-1.3,30.11,North,0,0.0,2.0,66,0.00,,---,0.00,VWS V13.01,2013-11-21 05:27:00,
2013-11-20 22:30:00,8.5,-0.5,30.11,North,0,0.0,3.0,66,0.00,,---,0.00,VWS V15.00,2013-11-21 05:30:00,
2013-11-20 22:32:00,7.8,-1.2,30.11,North,0,0.0,0.0,66,0.00,,---,0.00,VWS V13.01,2013-11-21 05:32:00,
2013-11-20 22:38:00,8.1,-0.9,30.11,North,0,0.0,0.0,66,0.00,,---,0.00,VWS V13.01,2013-11-21 05:38:00,
2013-11-20 22:43:00,8.3,-0.7,30.11,North,0,1.0,2.0,66,0.00,,---,0.00,VWS V13.01,2013-11-21 05:43:00,
2013-11-20 22:48:00,8.3,-0.4,30.12,North,0,0.0,3.0,67,0.00,,---,0.00,VWS V13.01,2013-11-21 05:48:00,
2013-11-20 22:53:00,8.3,-0.7,30.12,North,0,0.0,3.0,66,0.00,,---,0.00,VWS V13.01,2013-11-21 05:53:00,
2013-11-20 22:57:00,8.3,-0.7,30.11,North,0,0.0,3.0,66,0.00,,---,0.00,VWS V13.01,2013-11-21 05:57:00,
2013-11-20 23:00:00,8.6,-0.4,30.11,North,0,0.0,0.0,66,0.00,,---,0.00,VWS V15.00,2013-11-21 06:00:00,
2013-11-20 23:02:00,8.4,-0.3,30.12,North,0,3.0,3.0,67,0.00,,---,0.00,VWS V13.01,2013-11-21 06:02:00,
2013-11-20 23:07:00,8.5,-0.2,30.11,North,0,0.0,3.0,67,0.00,,---,0.00,VWS V13.01,2013-11-21 06:07:00,
2013-11-20 23:30:00,8.4,-0.6,30.11,North,0,0.0,1.0,66,0.00,,---,0.00,VWS V15.00,2013-11-21 06:30:00,
2013-11-20 23:38:00,8.5,-0.5,30.11,North,0,0.0,3.0,66,0.00,,---,0.00,VWS V13.01,2013-11-21 06:38:00,
2013-11-20 23:52:00,8.6,-0.4,30.12,North,0,0.0,0.0,66,0.00,,---,0.00,VWS V13.01,2013-11-21 06:52:00,
2013-11-20 23:57:00,8.6,-0.4,30.12,North,0,0.0,0.0,66,0.00,,---,0.00,VWS V13.01,2013-11-21 06:57:00,